FW8143 Weather Reports


Display with metric or nautical units.
time (UTC)temp
F
wind
direction
speed
MPH
gust
MPH
rain 1hr
in
rain 24hr
in
rain mn
in
humidity
%
barometer
mb
20240228214948 51 175 3.0 9.0 0.00 0.00 0.00 18 1025.7
20240228214444 51 222 3.0 7.0 0.00 0.00 0.00 20 1025.5
20240228213938 50 238 3.0 9.0 0.00 0.00 0.00 20 1025.5
20240228213431 50 322 3.0 9.0 0.00 0.00 0.00 20 1025.5
20240228212924 50 336 3.0 9.0 0.00 0.00 0.00 21 1025.5
20240228212650 50 226 3.0 9.0 0.00 0.00 0.00 20 1025.7
20240228211912 49 313 3.0 9.0 0.00 0.00 0.00 21 1025.7
20240228211408 49 20 3.0 9.0 0.00 0.00 0.00 21 1025.7
20240228210901 49 251 3.0 7.0 0.00 0.00 0.00 21 1025.7
20240228210354 49 287 3.0 7.0 0.00 0.00 0.00 22 1025.7
20240228205850 48 307 4.0 9.0 0.00 0.00 0.00 22 1025.7
20240228205615 48 292 3.0 9.0 0.00 0.00 0.00 22 1025.8
20240228204837 48 286 3.0 8.0 0.00 0.00 0.00 22 1025.7
20240228204331 48 225 3.0 9.0 0.00 0.00 0.00 22 1025.8
20240228203825 48 292 4.0 9.0 0.00 0.00 0.00 23 1025.8
20240228203319 47 286 4.0 8.0 0.00 0.00 0.00 23 1025.8
20240228203044 47 263 3.0 8.0 0.00 0.00 0.00 23 1025.9
20240228202308 47 255 3.0 8.0 0.00 0.00 0.00 24 1025.9
20240228201807 47 319 4.0 8.0 0.00 0.00 0.00 24 1026.0
20240228201307 46 15 4.0 10.0 0.00 0.00 0.00 25 1026.0
20240228200809 46 314 5.0 10.0 0.00 0.00 0.00 25 1026.0
20240228200307 46 355 5.0 10.0 0.00 0.00 0.00 27 1026.2
20240228195808 46 291 6.0 10.0 0.00 0.00 0.00 25 1026.2
20240228195307 45 296 5.0 11.0 0.00 0.00 0.00 25 1026.3
20240228194808 45 13 5.0 13.0 0.00 0.00 0.00 26 1026.4
20240228194309 45 341 6.0 13.0 0.00 0.00 0.00 25 1026.5
20240228193808 44 17 6.0 11.0 0.00 0.00 0.00 26 1026.7
20240228193537 44 331 6.0 12.0 0.00 0.00 0.00 26 1026.7
20240228192807 44 13 6.0 12.0 0.00 0.00 0.00 26 1026.8
20240228192307 43 342 6.0 12.0 0.00 0.00 0.00 26 1026.8
20240228191809 43 348 6.0 12.0 0.00 0.00 0.00 27 1026.9
20240228191536 42 323 7.0 12.0 0.00 0.00 0.00 27 1027.1
20240228190805 42 13 6.0 12.0 0.00 0.00 0.00 27 1027.1
20240228190306 42 5 5.0 11.0 0.00 0.00 0.00 28 1027.3
20240228185805 41 33 6.0 11.0 0.00 0.00 0.00 27 1027.3
20240228185259 41 5 6.0 11.0 0.00 0.00 0.00 27 1027.4
20240228184754 40 332 6.0 10.0 0.00 0.00 0.00 27 1027.4
20240228184247 40 290 6.0 11.0 0.00 0.00 0.00 29 1027.4
20240228183742 39 251 6.0 11.0 0.00 0.00 0.00 28 1027.4
20240228183235 39 355 6.0 11.0 0.00 0.00 0.00 28 1027.6
20240228182728 39 288 6.0 11.0 0.00 0.00 0.00 29 1027.6
20240228182222 38 298 7.0 12.0 0.00 0.00 0.00 29 1027.6
20240228181717 38 308 7.0 14.0 0.00 0.00 0.00 29 1027.7
20240228181212 38 346 7.0 14.0 0.00 0.00 0.00 30 1027.7
20240228180708 38 302 7.0 13.0 0.00 0.00 0.00 29 1027.6
20240228180207 37 315 6.0 11.0 0.00 0.00 0.00 31 1027.6
20240228175708 37 351 6.0 10.0 0.00 0.00 0.00 31 1027.7
20240228175208 37 306 6.0 10.0 0.00 0.00 0.00 30 1027.7
20240228174706 36 330 6.0 12.0 0.00 0.00 0.00 31 1027.7
20240228174206 36 340 6.0 12.0 0.00 0.00 0.00 32 1027.6
20240228173707 36 355 6.0 11.0 0.00 0.00 0.00 32 1027.6
20240228173207 35 5 6.0 10.0 0.00 0.00 0.00 32 1027.6
20240228172706 35 307 6.0 11.0 0.00 0.00 0.00 32 1027.6
20240228172206 35 355 6.0 11.0 0.00 0.00 0.00 33 1027.6
20240228171938 35 0 7.0 12.0 0.00 0.00 0.00 31 1027.6
20240228171207 35 16 6.0 12.0 0.00 0.00 0.00 31 1027.6
20240228170939 35 319 5.0 11.0 0.00 0.00 0.00 31 1027.6
20240228170206 34 5 6.0 11.0 0.00 0.00 0.00 30 1027.6
20240228165707 34 311 6.0 11.0 0.00 0.00 0.00 30 1027.4
20240228165207 34 317 6.0 10.0 0.00 0.00 0.00 29 1027.4
20240228164706 33 5 6.0 12.0 0.00 0.00 0.00 29 1027.4
20240228164205 33 337 7.0 12.0 0.00 0.00 0.00 31 1027.3
20240228163706 33 350 6.0 12.0 0.00 0.00 0.00 32 1027.3
20240228163438 32 355 6.0 12.0 0.00 0.00 0.00 32 1027.4
20240228162936 32 346 5.0 9.0 0.00 0.00 0.00 32 1027.3
20240228162206 31 306 5.0 9.0 0.00 0.00 0.00 30 1027.4
20240228161705 31 5 4.0 9.0 0.00 0.00 0.00 31 1027.4
20240228161206 30 13 4.0 9.0 0.00 0.00 0.00 30 1027.3
20240228160704 30 337 4.0 8.0 0.00 0.00 0.00 28 1027.3
20240228160205 29 5 4.0 8.0 0.00 0.01 0.00 28 1027.3
20240228155700 29 20 5.0 9.0 0.00 0.01 0.00 29 1027.2
20240228155202 28 15 5.0 9.0 0.00 0.01 0.00 29 1027.2
20240228154700 28 11 4.0 10.0 0.00 0.01 0.00 30 1027.2
20240228154201 27 26 4.0 10.0 0.00 0.01 0.00 31 1027.2
20240228153700 26 48 4.0 9.0 0.00 0.01 0.00 32 1027.1
20240228153200 26 28 4.0 9.0 0.00 0.01 0.00 34 1027.1
20240228152700 26 41 5.0 10.0 0.00 0.01 0.00 35 1026.9
20240228152200 25 17 7.0 12.0 0.00 0.01 0.00 35 1026.8
20240228151700 25 31 8.0 12.0 0.00 0.01 0.00 36 1026.8
20240228151202 25 13 8.0 12.0 0.00 0.01 0.00 36 1026.7
20240228150700 24 41 7.0 11.0 0.00 0.01 0.00 37 1026.5
20240228150200 24 44 6.0 10.0 0.00 0.01 0.00 37 1026.7
20240228145701 24 34 6.0 11.0 0.00 0.01 0.00 38 1026.7
20240228145201 24 350 6.0 11.0 0.00 0.01 0.00 38 1026.5
20240228144700 23 47 6.0 11.0 0.00 0.01 0.00 38 1026.3
20240228144201 23 29 6.0 11.0 0.00 0.01 0.00 38 1026.2
20240228143700 23 34 7.0 11.0 0.00 0.01 0.00 39 1026.0
20240228143201 23 52 7.0 10.0 0.00 0.01 0.00 40 1025.9
20240228142654 23 31 6.0 10.0 0.00 0.01 0.00 40 1025.8
20240228142418 23 26 7.0 10.0 0.00 0.01 0.00 40 1025.8
20240228141642 23 28 7.0 10.0 0.00 0.01 0.00 40 1025.7
20240228141136 23 38 6.0 9.0 0.00 0.01 0.00 39 1025.5
20240228140630 24 29 6.0 10.0 0.00 0.01 0.00 39 1025.5
20240228140123 24 26 6.0 10.0 0.00 0.01 0.00 39 1025.4
20240228135619 24 355 6.0 9.0 0.00 0.01 0.00 38 1025.3
20240228135112 24 5 5.0 8.0 0.00 0.01 0.00 38 1025.2
20240228135107 24 11 3.0 7.0 0.00 0.01 0.00 38 1025.2
20240228134100 24 343 2.0 5.0 0.00 0.01 0.00 38 1025.0
20240228133555 25 13 1.0 3.0 0.00 0.01 0.00 37 1025.0
20240228133048 25 320 0.0 2.0 0.00 0.01 0.00 36 1024.9
20240228132543 25 320 1.0 2.0 0.00 0.01 0.00 36 1024.8
20240228132036 25 320 1.0 3.0 0.00 0.01 0.00 36 1024.8
20240228131531 26 51 1.0 3.0 0.00 0.01 0.00 36 1024.7
20240228131024 26 51 1.0 3.0 0.00 0.01 0.00 36 1024.7
20240228130520 26 28 2.0 4.0 0.00 0.01 0.00 36 1024.7
20240228130013 26 84 2.0 4.0 0.00 0.01 0.00 36 1024.4
20240228125738 26 45 1.0 3.0 0.00 0.01 0.00 36 1024.4
20240228125004 27 337 1.0 4.0 0.00 0.01 0.00 36 1024.3
20240228124957 27 338 3.0 7.0 0.00 0.01 0.00 35 1024.2
20240228123950 27 348 4.0 8.0 0.00 0.01 0.00 36 1024.2
20240228123443 27 348 5.0 10.0 0.00 0.01 0.00 35 1024.0
20240228122937 27 13 5.0 10.0 0.00 0.01 0.00 35 1023.9
20240228122432 27 9 6.0 11.0 0.00 0.01 0.00 35 1023.9
20240228121925 28 15 5.0 11.0 0.00 0.01 0.00 35 1024.0
20240228121419 28 21 6.0 11.0 0.00 0.01 0.00 35 1023.9
20240228120914 28 346 6.0 11.0 0.00 0.01 0.00 35 1023.8
20240228120407 28 13 6.0 12.0 0.00 0.01 0.00 34 1023.5
20240228115902 28 0 8.0 15.0 0.00 0.01 0.00 34 1023.3
20240228115633 29 5 9.0 15.0 0.00 0.01 0.00 34 1023.0
20240228114902 29 5 7.0 14.0 0.00 0.01 0.00 34 1023.0
20240228114402 29 355 5.0 11.0 0.00 0.01 0.00 34 1023.0
20240228113902 29 329 5.0 16.0 0.00 0.01 0.00 33 1022.9
20240228113402 29 315 6.0 16.0 0.00 0.01 0.00 33 1023.0
20240228112903 29 5 6.0 16.0 0.00 0.01 0.00 33 1023.3
20240228112402 30 322 10.0 21.0 0.00 0.01 0.00 32 1023.2
20240228112134 30 351 10.0 21.0 0.00 0.01 0.00 32 1023.0
20240228111403 30 19 11.0 21.0 0.00 0.01 0.00 32 1022.9
20240228110902 30 0 14.0 26.0 0.00 0.01 0.00 33 1022.6
20240228110402 30 0 15.0 26.0 0.00 0.01 0.00 33 1022.4
20240228105902 30 22 15.0 30.0 0.00 0.01 0.00 33 1022.3
20240228105402 30 310 18.0 30.0 0.00 0.01 0.00 34 1022.3
20240228104903 29 32 18.0 29.0 0.00 0.01 0.00 34 1022.4
20240228104634 29 5 15.0 29.0 0.00 0.01 0.00 35 1022.4
20240228103903 29 0 14.0 27.0 0.00 0.01 0.00 35 1022.6
20240228103357 29 355 13.0 22.0 0.00 0.01 0.00 36 1022.8
20240228102851 29 20 11.0 20.0 0.00 0.01 0.00 37 1022.6
20240228102348 29 5 11.0 20.0 0.00 0.01 0.00 37 1022.5
20240228102341 29 10 12.0 20.0 0.00 0.01 0.00 38 1022.6
20240228101335 29 32 16.0 30.0 0.00 0.01 0.00 38 1022.6
20240228100828 29 13 16.0 30.0 0.00 0.01 0.00 38 1022.5
20240228100554 30 28 16.0 28.0 0.00 0.01 0.00 39 1022.4
20240228100045 30 5 16.0 26.0 0.00 0.01 0.00 40 1022.4
20240228095309 30 13 17.0 27.0 0.00 0.01 0.00 40 1022.1
20240228094804 30 47 17.0 27.0 0.00 0.01 0.00 41 1021.9
20240228094257 30 32 17.0 26.0 0.00 0.01 0.00 42 1022.0
20240228094021 30 11 15.0 25.0 0.00 0.01 0.00 43 1022.1
20240228093247 30 18 13.0 20.0 0.00 0.01 0.00 44 1022.3
20240228093113 30 5 12.0 20.0 0.00 0.01 0.00 45 1022.0
20240228093008 29 344 12.0 20.0 0.00 0.01 0.00 46 1021.9
20240228091728 29 22 11.0 18.0 0.00 0.01 0.00 46 1021.8
20240228091453 29 17 11.0 17.0 0.00 0.01 0.00 47 1021.9
20240228090717 29 12 11.0 18.0 0.00 0.01 0.00 47 1021.8
20240228090212 29 15 10.0 18.0 0.00 0.01 0.00 48 1021.8
20240228090205 29 5 9.0 15.0 0.00 0.01 0.00 48 1021.8
20240228085158 29 24 9.0 17.0 0.00 0.01 0.00 49 1021.8
20240228084651 30 11 10.0 17.0 0.00 0.01 0.00 50 1021.8
20240228084145 30 348 8.0 13.0 0.00 0.01 0.00 50 1021.6
20240228083910 30 13 8.0 13.0 0.00 0.01 0.00 50 1021.5
20240228083135 30 13 10.0 15.0 0.00 0.02 0.00 50 1021.9
20240228082627 30 5 12.0 16.0 0.00 0.02 0.00 50 1021.8
20240228082352 30 17 11.0 16.0 0.00 0.03 0.00 50 1021.4
20240228081616 30 0 11.0 15.0 0.00 0.03 0.00 50 1021.8
20240228081108 30 12 12.0 16.0 0.00 0.03 0.00 50 1021.6
20240228080603 30 24 11.0 16.0 0.00 0.03 0.00 50 1021.8
20240228080057 31 355 10.0 16.0 0.00 0.03 0.00 50 1021.6
20240228075551 31 29 10.0 12.0 0.00 0.03 0.00 50 1021.4
20240228075050 31 14 10.0 14.0 0.00 0.03 0.00 50 1021.5
20240228074550 31 5 10.0 14.0 0.00 0.03 0.00 50 1021.4
20240228074050 31 11 8.0 13.0 0.00 0.03 0.00 50 1021.3
20240228073549 31 336 8.0 14.0 0.00 0.03 0.00 50 1021.3
20240228073322 31 9 8.0 16.0 0.00 0.03 0.00 50 1021.4
20240228072550 31 16 7.0 16.0 0.00 0.03 0.00 51 1021.4
20240228072051 32 306 6.0 12.0 0.00 0.03 0.00 51 1021.4
20240228071550 32 343 8.0 14.0 0.00 0.03 0.00 51 1021.3
20240228071050 32 19 11.0 17.0 0.00 0.03 0.00 51 1021.1
20240228070550 32 5 12.0 17.0 0.00 0.03 0.00 52 1021.1
20240228070049 32 13 13.0 20.0 0.00 0.03 0.00 52 1021.0
20240228065816 32 5 14.0 20.0 0.00 0.03 0.03 53 1021.0
20240228065038 32 18 13.0 20.0 0.00 0.03 0.03 53 1020.8
20240228064533 32 20 12.0 19.0 0.00 0.03 0.03 54 1020.8
20240228064529 33 16 11.0 19.0 0.00 0.03 0.03 55 1020.8
20240228063520 33 5 11.0 21.0 0.00 0.03 0.03 56 1020.9
20240228063014 33 355 13.0 21.0 0.00 0.03 0.03 56 1020.9
20240228062508 33 26 13.0 22.0 0.00 0.03 0.03 57 1020.6
20240228062002 33 14 14.0 22.0 0.00 0.03 0.03 57 1020.5
20240228061455 33 5 13.0 19.0 0.00 0.03 0.03 58 1020.3
20240228060951 33 5 14.0 23.0 0.00 0.03 0.03 59 1020.3
20240228060445 33 22 15.0 23.0 0.00 0.03 0.03 60 1020.1
20240228055938 34 9 13.0 23.0 0.00 0.03 0.03 62 1020.3
20240228055432 34 0 12.0 21.0 0.00 0.03 0.03 63 1020.1
20240228055159 34 5 14.0 22.0 0.00 0.03 0.03 64 1020.0
20240228054659 34 322 13.0 22.0 0.00 0.03 0.03 64 1019.6
20240228053928 34 29 10.0 18.0 0.00 0.03 0.03 64 1019.2
20240228053428 34 0 10.0 19.0 0.00 0.03 0.03 65 1019.2
20240228052929 34 345 11.0 20.0 0.00 0.03 0.03 65 1019.2
20240228052430 35 13 11.0 20.0 0.00 0.03 0.03 66 1019.1
20240228051929 35 5 12.0 21.0 0.00 0.03 0.03 66 1019.1
20240228051426 35 5 12.0 21.0 0.00 0.03 0.03 66 1019.0
20240228050927 35 351 9.0 19.0 0.00 0.03 0.03 66 1018.7
20240228050426 35 34 6.0 14.0 0.00 0.03 0.03 67 1018.7
20240228045926 35 297 8.0 14.0 0.00 0.03 0.03 67 1018.7
20240228045428 35 5 9.0 17.0 0.00 0.03 0.03 67 1018.5
20240228044924 35 294 9.0 17.0 0.00 0.03 0.03 66 1018.6
20240228044424 35 41 8.0 17.0 0.00 0.03 0.03 67 1018.1
20240228043924 35 333 8.0 17.0 0.00 0.03 0.03 67 1018.2
20240228043424 35 319 9.0 17.0 0.00 0.03 0.03 67 1018.1
20240228042924 35 29 8.0 14.0 0.00 0.03 0.03 67 1018.1
20240228042424 35 340 7.0 15.0 0.00 0.03 0.03 67 1018.0
20240228042149 36 355 9.0 17.0 0.00 0.03 0.03 67 1018.1
20240228041411 36 317 11.0 19.0 0.00 0.03 0.03 67 1017.9
20240228040905 36 0 12.0 20.0 0.00 0.03 0.03 68 1017.7
20240228040359 36 355 12.0 20.0 0.00 0.03 0.03 68 1017.7
20240228035855 36 0 12.0 20.0 0.00 0.03 0.03 68 1017.6
20240228035350 36 26 10.0 20.0 0.00 0.03 0.03 67 1017.5
20240228034850 37 5 9.0 19.0 0.00 0.03 0.03 67 1017.2
20240228034349 37 331 8.0 18.0 0.00 0.03 0.03 66 1017.1
20240228033849 37 320 8.0 16.0 0.00 0.03 0.03 65 1017.1
20240228033622 37 315 10.0 18.0 0.00 0.03 0.03 65 1017.1
20240228032850 38 334 11.0 18.0 0.00 0.03 0.03 64 1017.1
20240228032623 38 338 10.0 18.0 0.00 0.03 0.03 62 1016.9
20240228031851 38 337 8.0 16.0 0.00 0.03 0.03 60 1016.7
20240228031350 38 16 9.0 17.0 0.00 0.03 0.03 58 1016.6
20240228031120 38 329 10.0 17.0 0.00 0.03 0.03 57 1016.5
20240228030351 39 346 10.0 17.0 0.00 0.03 0.03 57 1016.6
20240228025854 39 299 9.0 19.0 0.00 0.03 0.03 57 1016.4
20240228025850 39 311 10.0 18.0 0.00 0.03 0.03 57 1016.4
20240228024849 39 312 10.0 19.0 0.00 0.03 0.03 56 1016.2
20240228024351 39 332 12.0 22.0 0.00 0.03 0.03 56 1016.2
20240228024120 39 34 12.0 22.0 0.00 0.03 0.03 56 1016.1
20240228023349 40 346 11.0 22.0 0.00 0.03 0.03 55 1016.0
20240228022843 40 5 12.0 21.0 0.00 0.03 0.03 54 1015.9
20240228022339 40 336 14.0 24.0 0.00 0.03 0.03 53 1016.0
20240228021839 40 331 16.0 24.0 0.00 0.03 0.03 52 1015.7
20240228021339 40 329 16.0 27.0 0.00 0.03 0.03 52 1015.7
20240228020840 40 336 14.0 27.0 0.00 0.03 0.03 52 1015.6
20240228020340 40 316 11.0 19.0 0.00 0.03 0.03 52 1015.6
20240228020110 41 350 11.0 19.0 0.00 0.03 0.03 52 1015.3
20240228015611 41 328 10.0 20.0 0.00 0.03 0.03 51 1015.2
20240228014839 41 292 10.0 20.0 0.00 0.03 0.03 51 1015.2
20240228014344 41 298 13.0 25.0 0.00 0.03 0.03 50 1015.1
20240228014340 41 327 12.0 25.0 0.00 0.03 0.03 51 1015.2
20240228013838 42 335 12.0 22.0 0.00 0.03 0.03 50 1014.8
20240228012836 42 312 12.0 24.0 0.00 0.03 0.03 49 1014.8
20240228012335 42 355 12.0 24.0 0.00 0.03 0.03 48 1014.7
20240228012106 43 5 12.0 21.0 0.00 0.03 0.03 46 1014.6
20240228011337 43 302 12.0 21.0 0.00 0.03 0.03 45 1014.6
20240228010836 44 279 11.0 23.0 0.00 0.03 0.03 43 1014.5
20240228010336 44 342 11.0 25.0 0.00 0.03 0.03 42 1014.3
20240228005836 44 323 13.0 25.0 0.00 0.03 0.03 40 1014.5
20240228005606 45 248 14.0 28.0 0.00 0.03 0.03 39 1014.3
20240228004833 45 225 13.0 28.0 0.00 0.03 0.03 38 1014.1
20240228004334 46 298 16.0 32.0 0.00 0.03 0.03 37 1014.1
20240228003835 46 274 19.0 32.0 0.00 0.03 0.03 36 1014.0
20240228003334 47 264 18.0 32.0 0.00 0.03 0.03 35 1013.7
20240228003104 47 263 16.0 32.0 0.00 0.03 0.03 34 1013.8
20240228002334 47 259 14.0 27.0 0.00 0.03 0.03 34 1013.7
20240228001835 47 273 14.0 27.0 0.00 0.03 0.03 34 1013.7
20240228001335 47 275 13.0 26.0 0.00 0.03 0.03 35 1013.5
20240228000834 47 239 15.0 28.0 0.00 0.03 0.03 36 1013.3
20240228000328 47 298 15.0 32.0 0.00 0.03 0.03 36 1013.5
20240227235821 48 281 15.0 32.0 0.00 0.03 0.03 36 1013.3
20240227235317 48 328 17.0 31.0 0.00 0.03 0.03 36 1013.3
20240227234811 48 278 18.0 40.0 0.00 0.03 0.03 35 1013.3
20240227234307 48 301 18.0 40.0 0.00 0.03 0.03 35 1013.1
20240227233807 48 76 20.0 40.0 0.00 0.03 0.03 35 1013.0
20240227233308 49 279 24.0 43.0 0.00 0.03 0.03 35 1013.2
20240227232808 49 278 20.0 43.0 0.00 0.03 0.03 34 1013.1
20240227232307 49 254 14.0 32.0 0.00 0.03 0.03 37 1013.0
20240227231808 49 265 12.0 32.0 0.00 0.03 0.03 42 1013.0
20240227231309 48 323 14.0 27.0 0.00 0.03 0.03 42 1012.8
20240227230807 49 282 13.0 27.0 0.00 0.03 0.03 40 1012.7
20240227230307 48 301 12.0 27.0 0.00 0.03 0.03 44 1012.6
20240227225808 48 196 14.0 27.0 0.00 0.03 0.03 43 1012.7
20240227225318 47 294 13.0 24.0 0.00 0.03 0.03 44 1012.6
20240227224807 46 284 13.0 22.0 0.00 0.03 0.03 45 1012.5
20240227224307 46 331 15.0 28.0 0.00 0.03 0.03 45 1012.3
20240227223809 47 257 19.0 36.0 0.00 0.03 0.03 44 1012.3
20240227223540 47 284 21.0 36.0 0.00 0.03 0.03 42 1012.6
20240227222807 48 197 19.0 36.0 0.00 0.03 0.03 43 1012.2
20240227222307 48 266 17.0 33.0 0.00 0.03 0.03 43 1012.5
20240227221807 48 255 18.0 35.0 0.00 0.03 0.03 44 1012.3
20240227221305 49 267 19.0 35.0 0.00 0.03 0.03 43 1012.5
20240227220805 49 241 19.0 34.0 0.00 0.03 0.03 43 1012.5
20240227220304 48 276 17.0 34.0 0.00 0.03 0.03 44 1012.7
20240227215804 47 263 17.0 34.0 0.00 0.03 0.03 46 1012.6
20240227215305 47 165 21.0 45.0 0.00 0.03 0.03 46 1012.6